Погода в Новом Свете

Россия / Омская область     55°07′11″N   74°51′27″E
темп.,
°C
ветер,
м/с
пор.,
м/с
влажн.,
%
обл.,
%
осадки,
мм/ч
давл.,
гПа
погр.,
м
1 июля, пт
пт100:00+10з613739 0.0 1002599
03:00+11зсз71272100 0.0 1002759
06:00+10зсз61179100 0.1 1004661
09:00+9з61193100 0.4 1004564
12:00+11з6118999 0.4 1005677
15:00+12зсз61184100 0.1 1006850
18:00+13зсз61184100 0.1 1007711
21:00+11зсз51086100 0.0 1008426
2 июля, сб
сб200:00+10з4109583 0.0 1008270
03:00+10з499766 0.0 1007208
06:00+11з499054 0.0 1007286
09:00+15зсз57715 0.0 1007595
12:00+17зсз576878 0.8 10081045
15:00+18сз685861 0.4 10081573
18:00+17зсз576281 0.6 10081367
21:00+14сз368298 0.3 1008119
3 июля, вс
вс300:00+11з229044 0.3 100822
03:00+10з33935 0.0 100841
06:00+10зсз238975 0.0 100884
09:00+16сз347040 0.0 1009428
12:00+18з23616 0.0 1009697
15:00+21зсз345270 0.1 10091931
18:00+19з246459 0.2 1009852
21:00+16зюз22730 0.0 100811
4 июля, пн
пн400:00+13ю11785 0.0 100810
03:00+12ю228366 0.0 100712
06:00+13ююв2283100 0.0 100738
09:00+17ююв2368100 0.0 1006378
12:00+20юв3454100 0.0 10051375
15:00+22вюв5646100 0.0 10032230
18:00+20всв5763100 0.0 1001553
21:00+14в4993100 0.7 1001241
5 июля, вт
вт500:00+14св41192100 0.9 1000292
03:00+14св81589100 0.3 997471
06:00+13св81589100 0.3 996432
09:00+16св71185100 0.0 996566
12:00+17св71080100 0.0 996675
15:00+17ссв5881100 0.1 997483
18:00+16с6108499 0.1 999596
21:00+14с51089100 0.0 1000317